QPF
0.00 0.00 0.00 0.00 0.00 0.00 0.00 0.00 0.00 0.00 0.00 0.00 0.00 0.00 0.00 0.00 0.00 0.00 0.00 0.00 0.00 0.00 0.00 0.00 0.00 0.00 0.00 0.00 0.00 0.00 0.00 0.00 0.00 0.00 0.00 0.01 0.01 0.01 0.01 0.01 0.01 0.01 0.01 0.01 0.01 0.01 0.01 0.01 0.01
0.00 0.00 0.00 0.00 0.00 0.00 0.00 0.00 0.00 0.00 0.00 0.00 0.00 0.00 0.00 0.00 0.00 0.00 0.00 0.00 0.00 0.00 0.00 0.00 0.00 0.00 0.00 0.00 0.00 0.00 0.00 0.00 0.00 0.00 0.00 0.00 0.01 0.02 0.03 0.04 0.04 0.04 0.05 0.06 0.07 0.06 0.06 0.06 0.04
0.00 0.00 0.00 0.00 0.00 0.00 0.00 0.00 0.00 0.00 0.00 0.00 0.00 0.00 0.00 0.00 0.00 0.00 0.00 0.00 0.00 0.00 0.00 0.00 0.00 0.00 0.00 0.00 0.00 0.00 0.00 0.00 0.00 0.00 0.00 0.01 0.01 0.02 0.03 0.04 0.04 0.07 0.09 0.09 0.09 0.08 0.07 0.07 0.05
0.00 0.00 0.00 0.00 0.00 0.00 0.00 0.00 0.00 0.00 0.00 0.00 0.00 0.00 0.00 0.00 0.00 0.00 0.00 0.00 0.00 0.00 0.00 0.00 0.00 0.00 0.00 0.00 0.00 0.00 0.00 0.00 0.00 0.00 0.00 0.01 0.02 0.02 0.01 0.02 0.02 0.04 0.09 0.10 0.08 0.07 0.07 0.07 0.05
0.00 0.00 0.00 0.00 0.00 0.00 0.00 0.00 0.00 0.00 0.00 0.00 0.00 0.00 0.00 0.00 0.00 0.00 0.00 0.00 0.00 0.00 0.00 0.00 0.01 0.01 0.01 0.00 0.00 0.00 0.00 0.00 0.00 0.00 0.00 0.01 0.01 0.02 0.02 0.01 0.01 0.02 0.04 0.08 0.09 0.07 0.06 0.06 0.05
0.00 0.00 0.00 0.00 0.00 0.00 0.00 0.00 0.00 0.00 0.00 0.00 0.00 0.00 0.00 0.00 0.00 0.00 0.00 0.00 0.00 0.00 0.00 0.00 0.01 0.01 0.01 0.02 0.01 0.01 0.01 0.01 0.00 0.01 0.01 0.01 0.01 0.02 0.03 0.02 0.01 0.01 0.01 0.03 0.04 0.06 0.06 0.06 0.06
0.00 0.00 0.00 0.00 0.00 0.00 0.00 0.00 0.00 0.00 0.00 0.00 0.00 0.00 0.00 0.00 0.00 0.00 0.00 0.00 0.00 0.00 0.00 0.00 0.00 0.00 0.01 0.02 0.03 0.04 0.04 0.04 0.03 0.03 0.02 0.02 0.02 0.02 0.04 0.04 0.03 0.01 0.01 0.01 0.01 0.02 0.03 0.04 0.06
0.00 0.00 0.00 0.00 0.00 0.00 0.00 0.00 0.00 0.00 0.00 0.00 0.00 0.00 0.00 0.00 0.00 0.00 0.00 0.00 0.00 0.00 0.00 0.00 0.00 0.00 0.00 0.01 0.03 0.05 0.06 0.06 0.05 0.05 0.03 0.03 0.02 0.01 0.02 0.02 0.02 0.01 0.01 0.01 0.01 0.01 0.01 0.02 0.03
0.00 0.00 0.00 0.00 0.00 0.00 0.00 0.00 0.00 0.00 0.00 0.00 0.00 0.00 0.00 0.00 0.00 0.00 0.00 0.00 0.00 0.00 0.00 0.00 0.00 0.00 0.00 0.00 0.01 0.03 0.05 0.04 0.04 0.04 0.04 0.04 0.03 0.02 0.01 0.01 0.01 0.01 0.01 0.01 0.01 0.01 0.01 0.01 0.01
0.00 0.00 0.00 0.00 0.00 0.00 0.00 0.00 0.00 0.00 0.00 0.00 0.00 0.00 0.00 0.00 0.00 0.00 0.00 0.00 0.00 0.00 0.00 0.00 0.00 0.00 0.00 0.00 0.01 0.01 0.02 0.02 0.03 0.03 0.04 0.05 0.04 0.04 0.04 0.02 0.02 0.02 0.02 0.02 0.03 0.03 0.02 0.01 0.00
0.00 0.00 0.00 0.00 0.00 0.00 0.00 0.00 0.00 0.00 0.00 0.00 0.00 0.00 0.00 0.00 0.00 0.00 0.00 0.00 0.00 0.00 0.00 0.00 0.00 0.00 0.00 0.00 0.00 0.00 0.00 0.01 0.01 0.02 0.04 0.05 0.06 0.08 0.07 0.05 0.04 0.02 0.02 0.02 0.02 0.03 0.02 0.01 0.00
0.00 0.00 0.00 0.00 0.00 0.00 0.00 0.00 0.00 0.00 0.00 0.00 0.00 0.00 0.00 0.00 0.00 0.00 0.00 0.00 0.00 0.00 0.00 0.00 0.00 0.00 0.00 0.00 0.00 0.00 0.00 0.00 0.00 0.01 0.03 0.04 0.05 0.05 0.05 0.05 0.05 0.04 0.03 0.03 0.02 0.01 0.01 0.01 0.01
0.00 0.00 0.00 0.00 0.00 0.00 0.00 0.00 0.00 0.00 0.00 0.00 0.00 0.00 0.00 0.00 0.00 0.00 0.00 0.00 0.00 0.00 0.00 0.00 0.00 0.00 0.00 0.00 0.00 0.00 0.00 0.00 0.00 0.00 0.01 0.02 0.02 0.02 0.02 0.02 0.02 0.03 0.03 0.04 0.04 0.03 0.02 0.01 0.01
0.00 0.00 0.00 0.00 0.00 0.00 0.00 0.00 0.00 0.00 0.00 0.00 0.00 0.00 0.00 0.00 0.00 0.00 0.00 0.00 0.00 0.00 0.00 0.00 0.00 0.00 0.00 0.00 0.00 0.00 0.00 0.00 0.00 0.00 0.00 0.00 0.01 0.01 0.01 0.01 0.01 0.01 0.01 0.02 0.02 0.02 0.02 0.01 0.01
0.00 0.00 0.00 0.00 0.00 0.00 0.00 0.00 0.00 0.00 0.00 0.00 0.00 0.00 0.00 0.00 0.00 0.00 0.00 0.00 0.00 0.00 0.00 0.00 0.00 0.00 0.00 0.00 0.00 0.00 0.00 0.00 0.00 0.00 0.00 0.00 0.00 0.00 0.00 0.00 0.00 0.00 0.00 0.01 0.01 0.00 0.00 0.00 0.00
0.00 0.00 0.00 0.00 0.00 0.00 0.00 0.00 0.00 0.00 0.00 0.00 0.00 0.00 0.00 0.00 0.00 0.00 0.00 0.00 0.00 0.00 0.00 0.00 0.00 0.00 0.00 0.00 0.00 0.00 0.00 0.00 0.00 0.00 0.00 0.00 0.00 0.00 0.00 0.00 0.00 0.00 0.00 0.00 0.00 0.00 0.00 0.00 0.00
0.00 0.00 0.00 0.00 0.00 0.00 0.00 0.00 0.00 0.00 0.00 0.00 0.00 0.00 0.00 0.00 0.00 0.00 0.00 0.00 0.00 0.00 0.00 0.00 0.00 0.00 0.00 0.00 0.00 0.00 0.00 0.00 0.00 0.00 0.00 0.00 0.00 0.00 0.00 0.00 0.00 0.00 0.00 0.00 0.00 0.00 0.00 0.00 0.00
0.00 0.00 0.00 0.00 0.00 0.00 0.00 0.00 0.00 0.00 0.00 0.00 0.00 0.00 0.00 0.00 0.00 0.00 0.00 0.00 0.00 0.00 0.00 0.00 0.00 0.00 0.00 0.00 0.00 0.00 0.00 0.00 0.00 0.00 0.00 0.00 0.00 0.00 0.00 0.00 0.00 0.00 0.00 0.00 0.00 0.00 0.00 0.00 0.00
0.00 0.00 0.00 0.00 0.00 0.00 0.00 0.00 0.00 0.00 0.00 0.00 0.00 0.00 0.00 0.00 0.00 0.00 0.00 0.00 0.00 0.00 0.00 0.00 0.00 0.00 0.00 0.00 0.00 0.00 0.00 0.00 0.00 0.00 0.00 0.00 0.00 0.00 0.00 0.00 0.00 0.00 0.00 0.00 0.00 0.00 0.00 0.00 0.00
0.00 0.00 0.00 0.00 0.00 0.00 0.00 0.00 0.00 0.00 0.00 0.00 0.00 0.00 0.00 0.00 0.00 0.00 0.00 0.00 0.00 0.00 0.00 0.00 0.00 0.00 0.00 0.00 0.00 0.00 0.00 0.00 0.00 0.00 0.00 0.00 0.00 0.00 0.00 0.00 0.00 0.00 0.00 0.00 0.00 0.00 0.01 0.01 0.01
0.00 0.00 0.00 0.00 0.00 0.00 0.00 0.00 0.00 0.00 0.00 0.00 0.00 0.00 0.00 0.00 0.00 0.00 0.00 0.00 0.00 0.00 0.00 0.00 0.00 0.00 0.00 0.00 0.00 0.00 0.00 0.00 0.00 0.00 0.00 0.00 0.00 0.00 0.00 0.00 0.00 0.00 0.00 0.00 0.00 0.00 0.01 0.01 0.01
0.00 0.00 0.00 0.00 0.00 0.00 0.00 0.00 0.00 0.00 0.00 0.00 0.00 0.00 0.00 0.00 0.00 0.00 0.00 0.00 0.00 0.00 0.00 0.00 0.00 0.00 0.00 0.00 0.00 0.00 0.00 0.00 0.00 0.00 0.00 0.00 0.00 0.00 0.00 0.00 0.00 0.00 0.00 0.00 0.00 0.01 0.01 0.02 0.02
0.00 0.00 0.00 0.00 0.00 0.00 0.00 0.00 0.00 0.00 0.00 0.00 0.00 0.00 0.00 0.00 0.00 0.00 0.00 0.00 0.00 0.00 0.00 0.00 0.00 0.00 0.00 0.00 0.00 0.00 0.00 0.00 0.00 0.00 0.00 0.00 0.00 0.00 0.00 0.00 0.00 0.00 0.00 0.00 0.00 0.01 0.01 0.02 0.02
0.00 0.00 0.00 0.00 0.00 0.00 0.00 0.00 0.00 0.00 0.00 0.00 0.00 0.00 0.00 0.00 0.00 0.00 0.00 0.00 0.00 0.00 0.00 0.00 0.00 0.00 0.00 0.00 0.00 0.00 0.00 0.00 0.00 0.00 0.00 0.00 0.00 0.00 0.00 0.00 0.00 0.00 0.00 0.01 0.01 0.02 0.02 0.03 0.03
0.00 0.00 0.00 0.00 0.00 0.00 0.00 0.00 0.00 0.00 0.00 0.00 0.00 0.00 0.00 0.00 0.00 0.00 0.00 0.00 0.00 0.00 0.00 0.00 0.00 0.00 0.00 0.00 0.00 0.00 0.00 0.00 0.00 0.00 0.00 0.00 0.00 0.00 0.00 0.00 0.00 0.00 0.01 0.02 0.03 0.04 0.05 0.05 0.05
0.00 0.00 0.00 0.00 0.00 0.00 0.00 0.00 0.00 0.00 0.00 0.00 0.00 0.00 0.00 0.00 0.00 0.00 0.00 0.00 0.00 0.00 0.00 0.00 0.00 0.00 0.00 0.00 0.00 0.00 0.00 0.00 0.00 0.00 0.00 0.00 0.00 0.00 0.00 0.00 0.00 0.00 0.01 0.02 0.04 0.06 0.07 0.08 0.09
0.00 0.00 0.00 0.00 0.00 0.00 0.00 0.00 0.00 0.00 0.00 0.00 0.00 0.00 0.00 0.00 0.00 0.00 0.00 0.00 0.00 0.00 0.00 0.00 0.00 0.00 0.00 0.00 0.00 0.00 0.00 0.00 0.00 0.00 0.00 0.00 0.00 0.00 0.00 0.00 0.01 0.02 0.03 0.04 0.06 0.08 0.10 0.11 0.12
0.00 0.00 0.00 0.00 0.00 0.00 0.00 0.00 0.00 0.00 0.00 0.00 0.00 0.00 0.00 0.00 0.00 0.00 0.00 0.00 0.00 0.00 0.00 0.00 0.00 0.00 0.00 0.00 0.00 0.00 0.00 0.00 0.00 0.00 0.00 0.00 0.01 0.01 0.01 0.01 0.01 0.02 0.05 0.08 0.10 0.12 0.13 0.14 0.14
0.00 0.00 0.00 0.00 0.00 0.00 0.00 0.00 0.00 0.00 0.00 0.00 0.00 0.00 0.00 0.00 0.00 0.00 0.00 0.00 0.00 0.00 0.00 0.00 0.00 0.00 0.00 0.00 0.00 0.00 0.00 0.00 0.00 0.00 0.00 0.01 0.01 0.01 0.01 0.02 0.02 0.04 0.06 0.09 0.12 0.14 0.17 0.20 0.19
0.00 0.00 0.00 0.00 0.00 0.00 0.00 0.00 0.00 0.00 0.00 0.00 0.00 0.00 0.00 0.00 0.00 0.00 0.00 0.00 0.00 0.00 0.00 0.00 0.00 0.00 0.00 0.00 0.00 0.00 0.00 0.00 0.00 0.00 0.01 0.01 0.01 0.01 0.01 0.02 0.04 0.05 0.07 0.09 0.13 0.16 0.18 0.21 0.22
MSLP
1012.25 1013.15 1014.26 1015.41 1016.44 1017.21 1017.63 1017.69 1017.45 1017.02 1016.57 1016.20 1015.98 1015.95 1016.04 1016.17 1016.23 1016.15 1015.89 1015.46 1014.94 1014.42 1013.99 1013.73 1013.66 1013.78 1014.02 1014.29 1014.53 1014.67 1014.72 1014.66 1014.57 1014.47 1014.41 1014.40 1014.46 1014.53 1014.60 1014.63 1014.61 1014.55 1014.46 1014.38 1014.33 1014.34 1014.40 1014.49 1014.59
1012.89 1013.94 1015.13 1016.28 1017.24 1017.87 1018.12 1018.00 1017.59 1017.05 1016.51 1016.10 1015.89 1015.88 1016.00 1016.17 1016.28 1016.23 1015.99 1015.59 1015.09 1014.58 1014.16 1013.90 1013.83 1013.93 1014.14 1014.39 1014.61 1014.75 1014.79 1014.75 1014.67 1014.59 1014.55 1014.55 1014.60 1014.65 1014.68 1014.67 1014.61 1014.50 1014.38 1014.27 1014.21 1014.20 1014.26 1014.34 1014.45
1013.65 1014.78 1015.98 1017.07 1017.92 1018.41 1018.51 1018.26 1017.77 1017.18 1016.65 1016.27 1016.11 1016.15 1016.31 1016.50 1016.61 1016.55 1016.30 1015.89 1015.39 1014.88 1014.46 1014.20 1014.11 1014.18 1014.35 1014.55 1014.72 1014.81 1014.82 1014.76 1014.67 1014.59 1014.55 1014.54 1014.58 1014.61 1014.62 1014.58 1014.50 1014.38 1014.24 1014.13 1014.06 1014.05 1014.10 1014.19 1014.30
1014.48 1015.63 1016.78 1017.78 1018.49 1018.86 1018.85 1018.55 1018.07 1017.54 1017.10 1016.83 1016.76 1016.86 1017.05 1017.23 1017.29 1017.18 1016.88 1016.43 1015.90 1015.38 1014.95 1014.67 1014.56 1014.58 1014.69 1014.81 1014.89 1014.90 1014.84 1014.72 1014.59 1014.48 1014.41 1014.39 1014.41 1014.43 1014.43 1014.40 1014.31 1014.20 1014.08 1013.98 1013.93 1013.93 1013.98 1014.08 1014.19
1015.34 1016.46 1017.52 1018.39 1018.99 1019.26 1019.22 1018.96 1018.57 1018.19 1017.91 1017.80 1017.85 1018.01 1018.21 1018.34 1018.33 1018.13 1017.74 1017.22 1016.65 1016.10 1015.66 1015.35 1015.20 1015.17 1015.18 1015.20 1015.17 1015.07 1014.90 1014.70 1014.50 1014.33 1014.22 1014.17 1014.17 1014.18 1014.19 1014.16 1014.10 1014.02 1013.93 1013.87 1013.84 1013.86 1013.93 1014.02 1014.13
1016.16 1017.21 1018.17 1018.92 1019.42 1019.66 1019.66 1019.50 1019.29 1019.13 1019.06 1019.13 1019.31 1019.52 1019.70 1019.76 1019.63 1019.31 1018.82 1018.22 1017.59 1017.02 1016.56 1016.23 1016.04 1015.93 1015.85 1015.75 1015.59 1015.37 1015.08 1014.77 1014.48 1014.24 1014.08 1013.98 1013.95 1013.95 1013.95 1013.94 1013.91 1013.87 1013.82 1013.80 1013.81 1013.85 1013.92 1014.02 1014.12
1016.91 1017.86 1018.70 1019.36 1019.80 1020.05 1020.15 1020.18 1020.20 1020.28 1020.46 1020.71 1020.99 1021.23 1021.36 1021.31 1021.06 1020.61 1020.02 1019.34 1018.68 1018.09 1017.61 1017.27 1017.03 1016.85 1016.68 1016.46 1016.18 1015.82 1015.42 1015.00 1014.62 1014.31 1014.09 1013.94 1013.87 1013.83 1013.82 1013.81 1013.79 1013.77 1013.75 1013.76 1013.80 1013.86 1013.94 1014.03 1014.13
1017.53 1018.38 1019.12 1019.70 1020.13 1020.45 1020.69 1020.93 1021.20 1021.54 1021.93 1022.33 1022.69 1022.93 1022.98 1022.83 1022.45 1021.89 1021.21 1020.49 1019.81 1019.22 1018.75 1018.39 1018.12 1017.88 1017.61 1017.29 1016.89 1016.43 1015.93 1015.44 1014.99 1014.61 1014.32 1014.12 1013.98 1013.89 1013.83 1013.78 1013.75 1013.72 1013.71 1013.73 1013.78 1013.85 1013.93 1014.02 1014.10
1018.03 1018.78 1019.43 1019.97 1020.43 1020.84 1021.25 1021.70 1022.22 1022.78 1023.34 1023.86 1024.24 1024.44 1024.41 1024.15 1023.66 1023.02 1022.30 1021.58 1020.92 1020.36 1019.91 1019.55 1019.25 1018.94 1018.60 1018.18 1017.70 1017.16 1016.60 1016.06 1015.57 1015.14 1014.80 1014.53 1014.32 1014.15 1014.01 1013.89 1013.79 1013.72 1013.68 1013.68 1013.72 1013.78 1013.86 1013.95 1014.02
1018.42 1019.09 1019.67 1020.20 1020.70 1021.23 1021.81 1022.46 1023.18 1023.91 1024.60 1025.16 1025.54 1025.68 1025.56 1025.20 1024.65 1023.98 1023.26 1022.58 1021.98 1021.47 1021.06 1020.70 1020.37 1020.01 1019.59 1019.10 1018.55 1017.97 1017.38 1016.82 1016.32 1015.88 1015.50 1015.17 1014.87 1014.60 1014.34 1014.11 1013.91 1013.75 1013.65 1013.60 1013.60 1013.65 1013.72 1013.79 1013.87
1018.75 1019.35 1019.90 1020.43 1021.00 1021.64 1022.38 1023.21 1024.08 1024.92 1025.67 1026.23 1026.56 1026.62 1026.41 1025.99 1025.41 1024.76 1024.10 1023.50 1022.98 1022.55 1022.17 1021.82 1021.44 1021.02 1020.53 1019.98 1019.38 1018.78 1018.20 1017.66 1017.17 1016.73 1016.33 1015.94 1015.56 1015.17 1014.79 1014.42 1014.08 1013.81 1013.61 1013.48 1013.43 1013.44 1013.49 1013.56 1013.64
1019.10 1019.64 1020.17 1020.73 1021.37 1022.12 1022.99 1023.95 1024.92 1025.83 1026.58 1027.10 1027.35 1027.33 1027.05 1026.60 1026.03 1025.43 1024.87 1024.38 1023.96 1023.60 1023.25 1022.88 1022.46 1021.96 1021.39 1020.77 1020.14 1019.53 1018.97 1018.47 1018.02 1017.61 1017.20 1016.78 1016.31 1015.82 1015.30 1014.78 1014.30 1013.90 1013.58 1013.37 1013.24 1013.21 1013.23 1013.28 1013.35
1019.52 1020.02 1020.54 1021.13 1021.85 1022.71 1023.69 1024.74 1025.78 1026.70 1027.42 1027.87 1028.03 1027.93 1027.60 1027.13 1026.60 1026.09 1025.64 1025.26 1024.93 1024.63 1024.30 1023.89 1023.40 1022.81 1022.15 1021.46 1020.80 1020.19 1019.66 1019.20 1018.81 1018.43 1018.03 1017.57 1017.05 1016.46 1015.82 1015.17 1014.56 1014.03 1013.60 1013.28 1013.08 1012.98 1012.95 1012.98 1013.04
1020.05 1020.52 1021.04 1021.68 1022.47 1023.42 1024.50 1025.62 1026.69 1027.59 1028.26 1028.64 1028.72 1028.54 1028.18 1027.71 1027.23 1026.80 1026.45 1026.17 1025.92 1025.64 1025.30 1024.84 1024.25 1023.56 1022.81 1022.05 1021.35 1020.73 1020.22 1019.81 1019.46 1019.12 1018.73 1018.27 1017.70 1017.04 1016.32 1015.57 1014.86 1014.22 1013.68 1013.27 1012.98 1012.81 1012.72 1012.70 1012.72
1020.70 1021.15 1021.68 1022.36 1023.22 1024.26 1025.41 1026.58 1027.67 1028.56 1029.18 1029.48 1029.49 1029.25 1028.86 1028.40 1027.96 1027.60 1027.32 1027.10 1026.89 1026.62 1026.23 1025.70 1025.02 1024.22 1023.38 1022.56 1021.81 1021.18 1020.69 1020.31 1019.99 1019.67 1019.30 1018.83 1018.24 1017.55 1016.77 1015.97 1015.18 1014.46 1013.85 1013.35 1012.97 1012.71 1012.54 1012.45 1012.41
1021.43 1021.86 1022.40 1023.13 1024.06 1025.17 1026.39 1027.61 1028.72 1029.59 1030.17 1030.41 1030.36 1030.07 1029.65 1029.20 1028.78 1028.45 1028.21 1028.01 1027.80 1027.50 1027.06 1026.45 1025.68 1024.80 1023.89 1023.01 1022.23 1021.59 1021.09 1020.72 1020.41 1020.10 1019.74 1019.26 1018.67 1017.96 1017.17 1016.34 1015.52 1014.76 1014.08 1013.51 1013.05 1012.69 1012.42 1012.23 1012.11
1022.18 1022.59 1023.14 1023.91 1024.90 1026.08 1027.37 1028.63 1029.76 1030.63 1031.17 1031.38 1031.28 1030.96 1030.52 1030.05 1029.63 1029.31 1029.06 1028.84 1028.60 1028.25 1027.75 1027.07 1026.24 1025.31 1024.35 1023.44 1022.64 1021.99 1021.49 1021.10 1020.78 1020.46 1020.08 1019.60 1019.00 1018.30 1017.51 1016.69 1015.86 1015.08 1014.36 1013.73 1013.17 1012.71 1012.33 1012.03 1011.80
1022.89 1023.26 1023.83 1024.63 1025.67 1026.91 1028.25 1029.56 1030.72 1031.59 1032.12 1032.31 1032.19 1031.84 1031.38 1030.89 1030.44 1030.09 1029.80 1029.54 1029.24 1028.84 1028.29 1027.57 1026.71 1025.76 1024.80 1023.89 1023.09 1022.43 1021.91 1021.50 1021.14 1020.77 1020.36 1019.85 1019.25 1018.55 1017.78 1016.98 1016.17 1015.38 1014.63 1013.94 1013.30 1012.73 1012.23 1011.82 1011.48
1023.48 1023.83 1024.39 1025.22 1026.31 1027.60 1028.98 1030.33 1031.50 1032.39 1032.92 1033.10 1032.98 1032.62 1032.14 1031.62 1031.14 1030.74 1030.40 1030.09 1029.73 1029.28 1028.70 1027.97 1027.12 1026.20 1025.26 1024.38 1023.60 1022.94 1022.40 1021.94 1021.52 1021.09 1020.62 1020.06 1019.44 1018.73 1017.98 1017.19 1016.39 1015.60 1014.83 1014.09 1013.38 1012.71 1012.10 1011.58 1011.14
1023.93 1024.24 1024.80 1025.65 1026.77 1028.09 1029.51 1030.88 1032.07 1032.96 1033.51 1033.70 1033.58 1033.22 1032.73 1032.20 1031.70 1031.26 1030.87 1030.49 1030.09 1029.61 1029.02 1028.31 1027.50 1026.63 1025.76 1024.93 1024.18 1023.53 1022.95 1022.43 1021.94 1021.42 1020.86 1020.25 1019.57 1018.85 1018.08 1017.30 1016.51 1015.72 1014.92 1014.13 1013.35 1012.60 1011.90 1011.29 1010.78
1024.23 1024.52 1025.08 1025.94 1027.08 1028.42 1029.84 1031.21 1032.40 1033.30 1033.85 1034.06 1033.95 1033.62 1033.15 1032.62 1032.11 1031.65 1031.22 1030.82 1030.38 1029.89 1029.31 1028.64 1027.90 1027.10 1026.30 1025.54 1024.82 1024.16 1023.55 1022.96 1022.38 1021.76 1021.11 1020.40 1019.66 1018.89 1018.10 1017.30 1016.50 1015.69 1014.86 1014.03 1013.19 1012.38 1011.61 1010.93 1010.38
1024.43 1024.70 1025.26 1026.13 1027.28 1028.62 1030.03 1031.38 1032.55 1033.43 1033.98 1034.20 1034.12 1033.83 1033.40 1032.91 1032.42 1031.96 1031.53 1031.12 1030.69 1030.21 1029.66 1029.04 1028.35 1027.63 1026.90 1026.18 1025.48 1024.82 1024.16 1023.50 1022.82 1022.10 1021.33 1020.53 1019.71 1018.87 1018.04 1017.20 1016.36 1015.51 1014.65 1013.78 1012.90 1012.04 1011.23 1010.53 1009.95
1024.59 1024.86 1025.44 1026.32 1027.46 1028.78 1030.15 1031.46 1032.58 1033.42 1033.96 1034.18 1034.14 1033.89 1033.52 1033.10 1032.66 1032.25 1031.86 1031.47 1031.06 1030.61 1030.09 1029.51 1028.88 1028.21 1027.52 1026.83 1026.14 1025.45 1024.74 1024.00 1023.23 1022.40 1021.54 1020.64 1019.73 1018.82 1017.91 1017.02 1016.13 1015.23 1014.32 1013.41 1012.49 1011.61 1010.79 1010.08 1009.51
1024.78 1025.08 1025.68 1026.58 1027.71 1028.99 1030.30 1031.53 1032.57 1033.36 1033.86 1034.08 1034.06 1033.87 1033.58 1033.24 1032.89 1032.56 1032.23 1031.89 1031.53 1031.11 1030.63 1030.08 1029.48 1028.83 1028.16 1027.47 1026.76 1026.03 1025.26 1024.45 1023.59 1022.67 1021.72 1020.73 1019.74 1018.74 1017.76 1016.80 1015.84 1014.89 1013.93 1012.98 1012.04 1011.14 1010.32 1009.62 1009.07
1025.07 1025.42 1026.06 1026.97 1028.08 1029.31 1030.54 1031.67 1032.61 1033.31 1033.74 1033.94 1033.95 1033.82 1033.61 1033.37 1033.12 1032.89 1032.65 1032.39 1032.08 1031.70 1031.25 1030.72 1030.12 1029.47 1028.78 1028.06 1027.32 1026.54 1025.71 1024.84 1023.90 1022.92 1021.89 1020.83 1019.76 1018.69 1017.64 1016.60 1015.57 1014.56 1013.55 1012.55 1011.59 1010.68 1009.87 1009.19 1008.66
1025.51 1025.92 1026.61 1027.53 1028.62 1029.78 1030.90 1031.91 1032.73 1033.31 1033.67 1033.84 1033.85 1033.76 1033.63 1033.49 1033.36 1033.23 1033.09 1032.91 1032.66 1032.33 1031.90 1031.37 1030.76 1030.09 1029.37 1028.60 1027.81 1026.98 1026.10 1025.17 1024.19 1023.15 1022.07 1020.96 1019.83 1018.70 1017.58 1016.48 1015.38 1014.30 1013.24 1012.21 1011.23 1010.32 1009.51 1008.84 1008.33
1026.12 1026.60 1027.33 1028.26 1029.31 1030.38 1031.39 1032.26 1032.94 1033.40 1033.67 1033.77 1033.77 1033.72 1033.65 1033.61 1033.58 1033.56 1033.52 1033.43 1033.24 1032.95 1032.53 1032.01 1031.37 1030.66 1029.90 1029.08 1028.24 1027.36 1026.44 1025.47 1024.46 1023.40 1022.29 1021.15 1019.99 1018.82 1017.64 1016.47 1015.32 1014.19 1013.09 1012.02 1011.02 1010.11 1009.30 1008.63 1008.12
1026.88 1027.42 1028.18 1029.11 1030.10 1031.08 1031.96 1032.69 1033.22 1033.55 1033.72 1033.76 1033.74 1033.71 1033.70 1033.72 1033.79 1033.87 1033.91 1033.89 1033.77 1033.51 1033.11 1032.58 1031.92 1031.18 1030.37 1029.51 1028.62 1027.70 1026.76 1025.78 1024.75 1023.69 1022.57 1021.42 1020.24 1019.04 1017.83 1016.62 1015.43 1014.26 1013.12 1012.04 1011.03 1010.11 1009.30 1008.63 1008.09
1027.75 1028.34 1029.12 1030.01 1030.93 1031.80 1032.55 1033.14 1033.53 1033.74 1033.82 1033.80 1033.76 1033.74 1033.76 1033.85 1033.99 1034.14 1034.26 1034.30 1034.22 1033.99 1033.60 1033.06 1032.40 1031.63 1030.78 1029.90 1028.98 1028.04 1027.09 1026.10 1025.09 1024.03 1022.93 1021.78 1020.60 1019.38 1018.16 1016.93 1015.71 1014.52 1013.38 1012.29 1011.28 1010.37 1009.56 1008.87 1008.30
1028.69 1029.30 1030.05 1030.88 1031.70 1032.46 1033.08 1033.54 1033.81 1033.93 1033.93 1033.88 1033.83 1033.82 1033.88 1034.02 1034.21 1034.41 1034.58 1034.66 1034.60 1034.39 1034.02 1033.48 1032.81 1032.02 1031.17 1030.26 1029.34 1028.39 1027.44 1026.47 1025.46 1024.42 1023.34 1022.21 1021.03 1019.83 1018.60 1017.37 1016.15 1014.97 1013.83 1012.76 1011.77 1010.87 1010.06 1009.36 1008.76
Thickness
5735 5736 5735 5727 5706 5685 5683 5689 5696 5701 5711 5718 5719 5714 5708 5704 5700 5698 5720 5730 5730 5730 5728 5728 5726 5725 5724 5723 5722 5721 5720 5720 5719 5719 5719 5719 5719 5720 5720 5721 5721 5721 5722 5722 5723 5724 5724 5724 5724
5734 5734 5726 5710 5685 5668 5675 5684 5691 5700 5710 5717 5716 5711 5704 5700 5704 5707 5713 5720 5722 5721 5720 5720 5719 5718 5717 5716 5716 5715 5714 5714 5713 5713 5713 5713 5714 5714 5715 5716 5716 5717 5717 5718 5719 5720 5720 5721 5720
5734 5730 5712 5693 5674 5665 5673 5684 5690 5701 5708 5711 5707 5703 5695 5685 5688 5694 5703 5712 5714 5713 5712 5712 5711 5711 5710 5710 5709 5708 5708 5707 5707 5707 5707 5707 5708 5709 5710 5710 5711 5711 5712 5713 5713 5715 5716 5716 5717
5728 5717 5702 5684 5668 5674 5679 5684 5689 5697 5704 5702 5702 5691 5684 5674 5674 5684 5697 5704 5704 5703 5703 5703 5704 5704 5704 5703 5702 5702 5702 5701 5701 5701 5701 5702 5703 5704 5705 5705 5705 5706 5707 5707 5708 5709 5710 5711 5712
5720 5703 5683 5668 5671 5677 5681 5685 5688 5689 5689 5685 5691 5682 5672 5669 5673 5682 5689 5694 5693 5693 5693 5694 5695 5696 5697 5696 5696 5696 5696 5696 5696 5696 5696 5696 5697 5698 5699 5699 5700 5700 5701 5701 5702 5703 5704 5705 5706
5704 5691 5666 5659 5668 5674 5680 5681 5684 5678 5676 5674 5673 5675 5659 5656 5666 5670 5676 5679 5680 5680 5681 5682 5683 5685 5687 5688 5688 5688 5688 5689 5689 5689 5690 5690 5691 5691 5692 5693 5693 5694 5694 5695 5696 5697 5698 5699 5700
5694 5679 5665 5665 5665 5670 5678 5681 5672 5668 5661 5654 5657 5658 5648 5648 5651 5655 5662 5667 5668 5668 5668 5668 5670 5672 5674 5676 5677 5678 5678 5679 5680 5682 5683 5683 5684 5684 5685 5686 5686 5687 5688 5688 5689 5690 5691 5692 5694
5694 5678 5664 5663 5665 5668 5674 5675 5663 5654 5645 5641 5639 5628 5622 5628 5636 5644 5652 5654 5654 5654 5653 5653 5655 5658 5660 5662 5663 5665 5666 5667 5669 5672 5673 5675 5676 5677 5677 5678 5678 5679 5680 5681 5682 5683 5684 5686 5687
5697 5668 5659 5667 5669 5667 5667 5662 5653 5639 5632 5626 5618 5612 5611 5618 5628 5639 5642 5640 5638 5637 5637 5638 5640 5642 5645 5648 5649 5650 5652 5652 5655 5658 5661 5664 5666 5668 5669 5669 5670 5671 5672 5674 5675 5676 5678 5679 5680
5685 5662 5671 5677 5675 5664 5652 5645 5637 5625 5622 5614 5610 5608 5609 5615 5623 5624 5621 5619 5619 5619 5621 5622 5624 5626 5629 5631 5633 5634 5636 5637 5639 5642 5646 5650 5654 5657 5659 5661 5662 5663 5664 5666 5668 5669 5671 5672 5673
5684 5670 5676 5675 5674 5664 5648 5631 5625 5620 5604 5597 5595 5597 5602 5608 5610 5608 5604 5601 5600 5602 5605 5607 5609 5610 5613 5614 5616 5617 5619 5622 5625 5627 5630 5635 5640 5643 5647 5650 5653 5655 5657 5658 5660 5662 5663 5665 5666
5679 5672 5671 5665 5664 5654 5640 5626 5611 5606 5592 5591 5591 5592 5595 5597 5595 5592 5590 5588 5588 5591 5591 5593 5594 5596 5597 5598 5599 5600 5602 5604 5607 5610 5614 5618 5622 5627 5631 5636 5640 5643 5647 5649 5652 5654 5655 5657 5658
5672 5664 5654 5648 5646 5637 5629 5616 5607 5592 5589 5589 5589 5589 5587 5585 5581 5579 5578 5578 5578 5578 5578 5579 5581 5581 5582 5583 5584 5585 5586 5587 5590 5593 5597 5600 5604 5609 5614 5620 5625 5630 5634 5638 5642 5645 5647 5649 5651
5668 5660 5652 5647 5645 5635 5626 5613 5604 5588 5586 5585 5585 5582 5577 5574 5572 5571 5570 5567 5564 5563 5562 5563 5565 5565 5566 5567 5568 5569 5570 5572 5574 5577 5580 5583 5587 5591 5597 5604 5610 5616 5621 5626 5630 5634 5637 5640 5643
5670 5658 5651 5647 5643 5633 5627 5601 5589 5585 5580 5576 5571 5569 5568 5564 5561 5556 5552 5549 5546 5545 5545 5546 5548 5547 5548 5549 5551 5552 5553 5555 5557 5560 5563 5566 5570 5574 5579 5586 5593 5599 5606 5612 5618 5623 5627 5630 5634
5666 5654 5642 5644 5641 5634 5621 5582 5584 5580 5573 5565 5559 5555 5554 5551 5545 5541 5537 5534 5531 5530 5529 5528 5528 5529 5530 5531 5532 5534 5535 5537 5538 5541 5544 5548 5552 5557 5562 5568 5575 5582 5590 5597 5604 5611 5615 5619 5623
5648 5644 5641 5638 5630 5625 5609 5581 5575 5569 5562 5552 5545 5541 5540 5537 5533 5527 5522 5518 5515 5512 5511 5511 5510 5510 5511 5512 5513 5514 5516 5517 5519 5521 5524 5528 5532 5537 5542 5549 5557 5564 5573 5581 5589 5597 5602 5608 5613
5645 5643 5639 5630 5620 5608 5592 5572 5563 5554 5547 5535 5531 5529 5527 5524 5516 5511 5506 5502 5498 5495 5492 5491 5490 5489 5490 5491 5493 5494 5495 5497 5498 5500 5503 5506 5511 5516 5522 5530 5537 5545 5554 5564 5572 5580 5588 5595 5601
5650 5642 5633 5622 5612 5594 5579 5563 5553 5545 5537 5528 5521 5515 5511 5507 5501 5496 5490 5484 5479 5475 5471 5468 5465 5464 5464 5464 5466 5468 5471 5474 5477 5478 5480 5483 5488 5494 5501 5508 5516 5524 5533 5542 5552 5561 5572 5581 5586
5647 5637 5627 5615 5606 5587 5566 5551 5541 5535 5526 5516 5507 5500 5493 5491 5485 5478 5470 5461 5454 5448 5443 5440 5436 5434 5432 5431 5432 5435 5439 5444 5449 5452 5456 5458 5463 5469 5478 5485 5493 5502 5512 5523 5532 5540 5551 5564 5571
5640 5635 5628 5615 5592 5580 5565 5545 5530 5521 5514 5506 5493 5485 5477 5474 5462 5454 5445 5435 5426 5420 5413 5408 5404 5401 5400 5399 5400 5404 5410 5414 5418 5424 5429 5433 5438 5445 5453 5461 5470 5480 5489 5500 5510 5519 5529 5542 5553
5630 5632 5624 5613 5592 5571 5565 5534 5521 5511 5501 5491 5478 5469 5461 5451 5441 5430 5420 5409 5399 5391 5384 5378 5375 5372 5369 5368 5368 5369 5374 5379 5384 5390 5398 5405 5412 5420 5429 5438 5447 5456 5466 5477 5488 5500 5508 5519 5533
5630 5625 5618 5610 5593 5573 5562 5537 5512 5501 5488 5476 5465 5454 5445 5434 5422 5409 5396 5384 5374 5366 5360 5355 5352 5349 5346 5343 5341 5342 5344 5349 5356 5363 5373 5382 5391 5399 5407 5416 5426 5435 5445 5455 5465 5476 5488 5498 5511
5624 5619 5613 5596 5584 5577 5558 5536 5500 5481 5475 5462 5451 5440 5429 5417 5403 5390 5377 5365 5355 5347 5341 5337 5334 5332 5329 5326 5324 5324 5326 5330 5337 5345 5354 5364 5374 5382 5389 5398 5407 5416 5425 5434 5444 5454 5466 5478 5490
5614 5604 5596 5591 5581 5568 5529 5508 5483 5477 5466 5454 5439 5426 5413 5399 5385 5373 5361 5350 5340 5333 5327 5322 5320 5318 5316 5313 5311 5311 5313 5317 5322 5330 5339 5348 5359 5368 5376 5383 5391 5399 5407 5415 5424 5433 5444 5456 5468
5603 5595 5578 5567 5561 5543 5523 5495 5472 5469 5458 5443 5427 5411 5397 5383 5368 5356 5345 5335 5327 5321 5315 5311 5309 5307 5305 5303 5302 5303 5304 5307 5312 5318 5326 5335 5343 5352 5361 5369 5377 5385 5393 5400 5407 5415 5425 5435 5445
5600 5578 5574 5551 5539 5524 5511 5480 5471 5459 5443 5427 5411 5397 5382 5369 5356 5345 5335 5325 5318 5311 5305 5300 5298 5297 5296 5295 5295 5297 5297 5300 5304 5309 5316 5323 5330 5339 5347 5355 5364 5373 5381 5388 5394 5400 5408 5415 5425
5588 5570 5551 5546 5537 5527 5514 5476 5457 5441 5425 5412 5399 5385 5372 5359 5347 5336 5327 5318 5310 5302 5296 5292 5290 5288 5287 5287 5287 5289 5290 5293 5296 5301 5307 5313 5319 5326 5333 5341 5349 5359 5367 5375 5381 5386 5392 5399 5408
5580 5565 5539 5515 5509 5498 5482 5480 5449 5433 5416 5399 5386 5373 5360 5349 5338 5328 5318 5309 5301 5295 5289 5285 5283 5281 5280 5280 5280 5280 5282 5284 5287 5291 5296 5301 5307 5313 5319 5325 5333 5341 5349 5357 5363 5370 5377 5385 5393
5566 5554 5536 5522 5503 5475 5453 5456 5443 5423 5405 5388 5374 5364 5350 5339 5329 5319 5309 5300 5293 5287 5282 5278 5275 5273 5271 5270 5270 5270 5271 5273 5276 5279 5283 5288 5293 5298 5304 5309 5315 5322 5330 5337 5343 5351 5360 5369 5379